DAL1156 KATL-KHPN

Flight info

Callsign DAL1156
Flight time N/A
Altitude 35000
Route BURGG Q22 BESSI CYN
Aircraft B738/M-VGDW/C

Departure

Time N/A
Airport Hartsfield Jackson Atlanta International Airport (KATL)

Arrival

Time 2026-05-07 19:38
Airport Westchester County Airport (KHPN)
Time Latitude Longitude Altitude Speed Heading
2026-05-07 19:33 40.97242 -73.57449 3094 ft 141 kts 270°
2026-05-07 19:33 40.97185 -73.58687 2948 ft 135 kts 270°
2026-05-07 19:34 40.97130 -73.59902 2807 ft 130 kts 270°
2026-05-07 19:34 40.97077 -73.61095 2681 ft 130 kts 270°
2026-05-07 19:34 40.97046 -73.62296 2550 ft 129 kts 280°
2026-05-07 19:34 40.97435 -73.63274 2408 ft 116 kts 331°
2026-05-07 19:35 40.98177 -73.63694 2500 ft 120 kts 330°
2026-05-07 19:35 40.98839 -73.64458 2487 ft 127 kts 320°
2026-05-07 19:35 40.99546 -73.65206 2076 ft 134 kts 327°
2026-05-07 19:35 41.00357 -73.65791 1737 ft 133 kts 334°
2026-05-07 19:36 41.01141 -73.66408 1547 ft 131 kts 327°
2026-05-07 19:36 41.01911 -73.67039 1343 ft 129 kts 330°
2026-05-07 19:36 41.02704 -73.67626 1121 ft 129 kts 331°
2026-05-07 19:36 41.03471 -73.68204 954 ft 125 kts 330°
2026-05-07 19:37 41.04216 -73.68779 797 ft 122 kts 330°
2026-05-07 19:37 41.04943 -73.69323 672 ft 120 kts 330°
2026-05-07 19:37 41.05693 -73.69903 502 ft 128 kts 330°
2026-05-07 19:37 41.06461 -73.70485 392 ft 118 kts 330°
2026-05-07 19:38 41.06947 -73.70865 411 ft 44 kts 327°
2026-05-07 19:38 41.07102 -73.70933 416 ft 12 kts 73°
2026-05-07 19:38 41.07101 -73.70834 416 ft 11 kts 92°
2026-05-07 19:38 41.07034 -73.70727 415 ft 17 kts 149°
2026-05-07 19:39 41.06930 -73.70644 411 ft 13 kts 148°
2026-05-07 19:39 41.06864 -73.70588 409 ft 7 kts 136°
2026-05-07 19:39 41.06864 -73.70547 409 ft 2 kts 67°
2026-05-07 19:39 41.06870 -73.70531 410 ft 0 kts 62°